Cloud_Cover
1 0 21 0 82 100 100 73 100 98 7 1 3 4 2 90 100 100 37 17 2 2 0 0 0 0 0 0 2 1 0 0 0 0 0 0 0 0 0 0 0 0 14
0 0 0 0 1 100 100 100 100 100 50 5 4 29 100 99 100 100 31 0 0 0 0 0 0 0 0 0 0 0 0 0 0 74 53 77 3 0 0 0 0 0 3
0 0 9 0 0 11 100 100 100 100 98 5 3 99 100 100 100 100 33 22 0 0 0 0 0 0 0 0 0 0 0 79 100 100 100 94 82 94 93 100 92 7 14
1 0 0 87 15 0 16 100 100 100 100 91 39 100 100 100 100 53 3 0 0 0 0 0 0 0 0 0 0 0 0 22 100 99 10 69 7 19 99 100 75 90 10
1 5 0 66 96 0 1 89 100 100 100 100 100 100 21 9 8 0 0 0 0 0 0 0 0 0 0 0 0 0 24 64 100 96 7 0 0 56 94 61 97 96 3
1 5 1 5 100 0 0 83 93 100 100 100 100 34 5 5 5 5 91 28 5 0 0 0 0 0 0 0 0 0 0 1 83 0 0 0 0 32 97 4 0 0 39
0 14 30 0 7 1 0 5 94 100 100 100 100 26 5 5 5 81 78 5 2 0 0 0 63 1 0 0 0 0 0 0 0 0 59 58 52 99 98 4 11 78 88
10 0 38 28 0 5 0 0 100 100 100 100 100 100 84 29 31 100 52 5 73 1 0 99 100 0 0 0 0 0 4 0 0 0 93 100 100 100 97 99 100 2 8
21 0 0 47 2 3 5 3 79 100 100 100 100 100 100 79 98 100 35 30 100 5 7 100 54 0 0 0 0 0 0 5 48 0 7 79 100 100 100 100 100 100 95
0 0 0 8 6 5 5 21 21 100 100 100 100 100 100 100 100 100 85 49 100 49 9 96 24 5 3 5 0 0 0 0 0 0 0 99 100 100 100 100 25 0 9
0 0 0 6 0 2 2 5 6 83 100 100 100 100 100 100 100 100 100 100 100 99 100 100 9 5 5 5 4 1 0 0 0 0 1 100 100 100 98 99 71 26 44
0 0 0 0 0 20 22 53 65 84 100 100 100 100 100 100 100 100 100 100 100 100 100 94 24 9 5 4 0 0 0 0 0 0 87 100 100 67 74 100 96 95 12
0 0 0 0 0 14 40 84 99 68 100 100 95 83 100 100 100 100 100 100 100 85 99 37 67 5 5 0 0 0 0 0 0 6 100 100 100 81 93 91 26 34 2
0 0 0 0 9 2 34 94 100 99 100 100 98 100 100 100 100 100 100 100 100 100 100 100 44 5 3 0 0 0 0 0 0 22 100 100 80 68 7 96 100 90 40
0 0 0 0 5 0 89 100 100 100 90 100 87 82 100 100 100 100 100 98 100 100 100 100 14 2 5 0 2 0 2 11 2 0 95 92 64 87 28 53 36 100 19
0 0 0 0 0 0 92 86 99 100 97 100 100 100 100 100 100 100 100 96 100 100 100 100 85 5 4 2 6 26 16 8 4 0 69 100 100 90 5 1 100 100 100
0 0 0 0 0 2 8 92 100 100 100 100 55 100 100 100 59 100 100 100 100 100 100 100 98 99 25 25 91 5 5 39 36 9 97 100 100 75 10 14 85 56 96
0 0 0 0 0 0 68 100 100 100 98 100 65 96 100 80 100 100 100 100 100 100 100 100 100 100 67 36 99 93 38 38 86 22 36 96 92 18 0 2 20 87 73
0 0 0 0 11 38 94 100 100 100 100 100 96 40 64 88 100 100 100 100 100 93 100 100 100 100 45 96 98 100 100 24 73 5 28 90 86 8 1 5 2 2 6
0 0 29 44 9 20 94 100 90 100 100 100 93 23 92 26 100 100 100 100 100 100 100 100 100 100 94 82 75 100 100 49 100 99 14 99 100 100 99 47 6 5 0
33 64 66 69 50 44 100 100 100 100 100 100 100 96 100 8 46 84 100 100 100 100 100 100 100 99 32 76 64 100 100 77 100 100 100 100 100 100 100 100 19 5 64
99 82 98 58 42 54 100 100 100 100 100 100 100 100 100 67 11 58 99 99 100 60 100 100 100 100 37 86 41 18 100 98 100 93 100 100 86 88 99 94 94 63 26
91 97 90 96 18 15 99 100 100 100 100 100 100 96 100 100 100 98 100 100 79 91 97 100 100 100 100 96 84 100 100 100 100 100 100 100 100 100 100 100 100 97 13
100 64 45 99 80 5 23 100 100 100 100 100 100 100 100 100 100 100 100 100 100 100 100 86 100 100 100 100 96 100 100 100 100 100 100 100 100 100 100 100 100 83 30
99 100 90 80 100 89 100 100 100 100 100 100 100 100 100 100 100 100 100 100 100 100 100 100 100 100 100 100 100 100 99 95 100 100 100 100 100 100 100 78 92 52 35
100 91 79 95 100 100 99 100 100 100 100 100 100 100 100 100 100 100 100 100 100 100 100 100 100 100 99 100 100 100 100 100 100 100 100 100 100 100 100 97 25 5 5